TimeEST,TemperatureF,Dew PointF,Humidity,Sea Level PressureIn,VisibilityMPH,Wind Direction,Wind SpeedMPH,Gust SpeedMPH,PrecipitationIn,Events,Conditions,WindDirDegrees,DateUTC
12:54 AM,42.1,39.0,89,29.72,10.0,East,8.1,-,0.05,Rain,Light Rain,90,2012-12-21 05:54:00
1:17 AM,42.8,39.2,87,29.72,10.0,ESE,8.1,-,0.01,Rain,Light Rain,120,2012-12-21 06:17:00
1:54 AM,43.0,39.0,86,29.68,10.0,ESE,11.5,20.7,0.03,Rain,Light Rain,110,2012-12-21 06:54:00
2:33 AM,44.6,41.0,87,29.62,10.0,East,11.5,17.3,0.02,Rain,Light Rain,100,2012-12-21 07:33:00
2:54 AM,44.1,41.0,89,29.59,10.0,East,12.7,23.0,0.03,Rain,Light Rain,100,2012-12-21 07:54:00
3:54 AM,45.0,42.1,90,29.49,10.0,East,11.5,19.6,0.01,Rain,Light Rain,100,2012-12-21 08:54:00
4:04 AM,46.4,42.8,87,29.46,10.0,East,15.0,27.6,0.00,Rain,Light Rain,100,2012-12-21 09:04:00
4:54 AM,46.0,43.0,89,29.42,5.0,East,10.4,17.3,0.07,Rain,Rain,90,2012-12-21 09:54:00
5:05 AM,46.4,44.6,93,29.38,4.0,East,11.5,19.6,0.04,Rain,Heavy Rain,80,2012-12-21 10:05:00
5:54 AM,48.0,45.0,89,29.30,5.0,East,13.8,26.5,0.15,Rain,Rain,80,2012-12-21 10:54:00
6:15 AM,48.2,46.4,93,29.28,6.0,East,15.0,21.9,0.04,Rain,Rain,100,2012-12-21 11:15:00
6:54 AM,51.1,48.0,89,29.22,4.0,ESE,15.0,29.9,0.18,Rain,Rain,110,2012-12-21 11:54:00
7:54 AM,53.1,50.0,89,29.12,4.0,SE,20.7,28.8,0.18,Rain,Rain,130,2012-12-21 12:54:00
8:10 AM,53.6,51.8,94,29.11,2.5,SE,15.0,26.5,0.05,Rain,Rain,130,2012-12-21 13:10:00
8:26 AM,55.4,51.8,88,29.10,3.0,SSE,16.1,25.3,0.08,Rain,Light Rain,150,2012-12-21 13:26:00
8:54 AM,55.9,54.0,93,29.07,3.0,SSE,18.4,27.6,0.13,Rain,Rain,150,2012-12-21 13:54:00
9:01 AM,57.2,53.6,88,29.06,2.0,SSE,19.6,32.2,0.02,Rain,Rain,150,2012-12-21 14:01:00
9:12 AM,57.2,55.4,94,29.05,1.8,SSE,16.1,26.5,0.07,Rain,Heavy Rain,160,2012-12-21 14:12:00
9:22 AM,57.2,55.4,94,29.02,2.0,SSE,17.3,26.5,0.10,Rain,Rain,150,2012-12-21 14:22:00
9:32 AM,53.6,51.8,94,29.04,1.8,West,13.8,28.8,0.17,Rain,Heavy Rain,270,2012-12-21 14:32:00
9:40 AM,51.8,48.2,88,29.05,2.0,West,12.7,25.3,0.21,Rain,Rain,270,2012-12-21 14:40:00
9:54 AM,50.0,48.0,93,29.08,2.0,SW,16.1,-,0.26,Rain,Rain,220,2012-12-21 14:54:00
10:00 AM,48.2,46.4,93,29.08,4.0,SW,13.8,-,0.02,Rain,Rain,230,2012-12-21 15:00:00
10:54 AM,46.0,43.0,89,29.10,10.0,WSW,15.0,21.9,0.02,,Overcast,250,2012-12-21 15:54:00
11:54 AM,44.1,35.1,71,29.11,10.0,West,12.7,24.2,N/A,,Mostly Cloudy,270,2012-12-21 16:54:00
12:21 PM,44.6,35.6,71,29.11,10.0,WSW,18.4,26.5,N/A,,Mostly Cloudy,250,2012-12-21 17:21:00
12:35 PM,44.6,35.6,71,29.12,10.0,West,13.8,24.2,N/A,,Overcast,260,2012-12-21 17:35:00
12:54 PM,44.1,34.0,68,29.13,10.0,WSW,10.4,26.5,N/A,,Overcast,250,2012-12-21 17:54:00
1:54 PM,41.0,33.1,73,29.15,10.0,SW,17.3,25.3,N/A,,Overcast,230,2012-12-21 18:54:00
2:54 PM,39.9,30.0,68,29.18,10.0,West,10.4,21.9,N/A,,Overcast,260,2012-12-21 19:54:00
3:20 PM,39.2,30.2,70,29.18,10.0,SW,13.8,19.6,N/A,,Overcast,230,2012-12-21 20:20:00
3:42 PM,37.4,32.0,81,29.19,10.0,WSW,17.3,23.0,0.00,Rain,Light Rain,240,2012-12-21 20:42:00
3:54 PM,37.0,32.0,82,29.21,10.0,WSW,13.8,20.7,0.00,Rain,Light Rain,250,2012-12-21 20:54:00
4:54 PM,37.9,30.0,73,29.22,10.0,WSW,12.7,20.7,0.00,,Overcast,250,2012-12-21 21:54:00
5:54 PM,37.0,28.9,73,29.24,10.0,WSW,8.1,19.6,N/A,,Overcast,240,2012-12-21 22:54:00
6:54 PM,37.0,26.1,65,29.25,10.0,WSW,11.5,-,N/A,,Scattered Clouds,240,2012-12-21 23:54:00
7:54 PM,37.0,27.0,67,29.26,10.0,SW,8.1,-,N/A,,Overcast,230,2012-12-22 00:54:00
8:54 PM,37.0,28.0,70,29.26,10.0,SW,8.1,-,N/A,,Overcast,220,2012-12-22 01:54:00
9:54 PM,36.0,28.0,73,29.27,10.0,SW,9.2,-,N/A,,Overcast,220,2012-12-22 02:54:00
10:54 PM,36.0,28.0,73,29.28,10.0,SW,8.1,-,N/A,,Mostly Cloudy,230,2012-12-22 03:54:00
11:54 PM,35.1,28.9,78,29.27,10.0,SW,10.4,-,N/A,,Overcast,230,2012-12-22 04:54:00